[[[{"header":{"parameterUnit":"kt","parameterCategory":2,"dx":1,"dy":1,"la1":30.253999710083008,"la2":30.299108505249023,"lo1":-89.0895004272461,"lo2":-89.04439544677734,"nx":28,"ny":28,"refTime":"2022-10-03T21:00:00:Z","depth":0,"parameterNumber":1,"parameterNumberName":"U-component_of_WINDS"},"data":[-5.3915,-5.4059,-5.4054,-5.4215,-5.4237,-5.4345,-5.4381,-5.4427,-5.4461,-5.4586,-5.4656,-5.4663,-5.4691,-5.4771,-5.4844,-5.4844,-5.4874,-5.4931,-5.492,-5.4677,-5.4642,-5.4609,-5.4574,-5.4939,-5.494,-5.5172,-5.5174,-5.5176,-5.3741,-5.3766,-5.385,-5.3926,-5.3997,-5.3941,-5.3996,-5.4057,-5.4154,-5.4197,-5.4265,-5.4373,-5.4457,-5.4465,-5.4542,-5.4606,-5.458,-5.4627,-5.4619,-5.4624,-5.4364,-5.4328,-5.4647,-5.4647,-5.4646,-5.4646,-5.4646,-5.4646,-5.3421,-5.3508,-5.3551,-5.3641,-5.3677,-5.3728,-5.3808,-5.3814,-5.3893,-5.3975,-5.395,-5.4057,-5.4095,-5.4183,-5.4209,-5.4291,-5.4236,-5.4282,-5.4293,-5.4304,-5.4318,-5.3981,-5.4303,-5.4303,-5.4302,-5.4301,-5.43,0,-5.3184,-5.3173,-5.3252,-5.333,-5.3395,-5.3453,-5.3504,-5.3554,-5.3522,-5.3589,-5.3683,-5.3735,-5.3838,-5.3922,-5.3992,-5.4008,-5.3948,-5.3942,-5.3973,-5.3985,-5.3988,-5.3985,-5.3559,-5.3931,-5.3927,-5.3925,-5.3923,-5.3922,-5.2857,-5.2959,-5.2999,-5.3055,-5.3081,-5.3172,-5.3223,-5.3188,-5.3244,-5.33,-5.3376,-5.3462,-5.3528,-5.3677,-5.3676,-5.3751,-5.3721,-5.3864,-5.3731,-5.3741,-5.3719,-5.3711,-5.372,-5.3888,-5.3892,-5.3896,-5.3899,0,-5.2673,-5.266,-5.2815,-5.2842,-5.2852,-5.296,-5.2981,-5.3064,-5.3058,-5.3171,-5.3195,-5.3184,-5.3275,-5.3251,-5.3349,-5.3332,-5.3505,-5.3476,-5.3492,-5.3483,-5.3606,-5.3594,-5.4014,-5.4066,-5.3692,-5.3696,-5.3699,0,-5.2386,-5.2521,-5.2492,-5.2582,-5.2731,-5.269,-5.2837,-5.2845,-5.2877,-5.2965,-5.2895,-5.2979,-5.2934,-5.3014,-5.299,-5.3127,-5.3146,-5.314,-5.3131,-5.3144,-5.3145,-5.3167,-5.3148,-5.3111,-5.3109,-5.3107,-5.3106,0,-5.2096,-5.2238,-5.2385,-5.2414,-5.2454,-5.2524,-5.2543,-5.2576,-5.2626,-5.2686,-5.2717,-5.279,-5.2829,-5.2886,-5.2854,-5.2765,-5.3021,-5.2891,-5.3014,-5.3015,-5.3068,-5.3064,-5.3448,-5.3103,-5.3102,-5.3102,-5.3101,0,-5.1859,-5.1924,-5.214,-5.2171,-5.2209,-5.2305,-5.2374,-5.2451,-5.2491,-5.2482,-5.2529,-5.2476,-5.2595,-5.2469,-5.2631,-5.2523,-5.2565,-5.2571,-5.2579,-5.2584,-5.2441,-5.2656,-5.3028,-5.3064,-5.2595,-5.2591,-5.2587,0,-5.1529,-5.1743,-5.1708,-5.1913,-5.2007,-5.1921,-5.2027,-5.2065,-5.2062,-5.2139,-5.2134,-5.2222,-5.2122,-5.2145,-5.223,-5.2226,-5.2366,-5.2207,-5.2314,-5.2318,-5.2303,-5.2646,-5.2705,-5.295,-5.2533,-5.2538,-5.2542,0,-5.127,-5.1317,-5.1356,-5.1386,-5.143,-5.1507,-5.163,-5.1708,-5.1761,-5.1811,-5.1909,-5.2033,-5.1962,-5.2,-5.1964,-5.2053,-5.227,-5.1963,-5.1963,-5.2017,-5.2504,-5.2559,-5.2601,-5.2226,-5.2233,-5.2238,-5.2499,0,-5.0911,-5.1015,-5.112,-5.1189,-5.1245,-5.1372,-5.1345,-5.1407,-5.1367,-5.1359,-5.1505,-5.1525,-5.1602,-5.1642,-5.1603,-5.1816,-5.1774,-5.1696,-5.1566,-5.1793,-5.1878,-5.1913,-5.1442,-5.1438,-5.1435,-5.1432,0,0,-5.0596,-5.0743,-5.0699,-5.0816,-5.086,-5.0766,-5.0903,-5.0934,-5.0999,-5.1031,-5.096,-5.1135,-5.1154,-5.1333,-5.1401,-5.1433,-5.1467,-5.1388,-5.1686,-5.1715,-5.1741,-5.1833,-5.187,-5.1426,-5.1425,-5.1424,-5.1423,0,-5.0457,-5.0484,-5.0622,-5.0653,-5.0697,-5.0682,-5.0716,-5.0741,-5.0741,-5.0884,-5.08,-5.0883,-5.1024,-5.1055,-5.1088,-5.1368,-5.1297,-5.1394,-5.1553,-5.1654,-5.1687,-5.1716,-5.1812,-5.1848,-5.1415,-5.1415,-5.1415,0,-5.0194,-5.0215,-5.0278,-5.0375,-5.0402,-5.05,-5.0359,-5.0468,-5.054,-5.0425,-5.0567,-5.0574,-5.0612,-5.0785,-5.0861,-5.0797,-5.1144,-5.1029,-5.1049,-5.1055,-5.1151,-5.1191,-5.1226,-5.076,-5.0757,-5.0756,0,0,-5.0078,-5.0174,-5.0181,-5.0343,-5.0366,-5.0344,-5.0393,-5.0357,-5.0394,-5.041,-5.0416,-5.0454,-5.0534,-5.0588,-5.0662,-5.0857,-5.086,-5.095,-5.0981,-5.1006,-5.1026,-5.1128,-5.1168,-5.0747,-5.0747,-5.0747,0,0,-5.002,-5.0036,-4.9988,-5.0173,-5.0214,-5.0228,-5.0327,-5.0268,-5.0332,-5.0313,-5.0254,-5.0261,-5.0423,-5.0432,-5.0327,-5.0614,-5.0487,-5.0511,-5.0602,-5.0641,-5.0671,-5.0663,-5.018,0,0,0,0,0,-4.9862,-5.0034,-4.9991,-5.0018,-5.0137,-5.0253,-5.0268,-5.0224,-5.0135,-5.0215,-5.021,-5.0132,-5.0363,-5.0269,-5.0295,-5.041,-5.0643,-5.0661,-5.0679,-5.0841,-5.0882,-5.0916,0,0,0,0,0,0,-4.9872,-4.9905,-4.9986,-5.0009,-5.0035,-5.0246,-5.0086,-5.0079,-5.0125,-5.0109,-5.0135,-5.0133,-5.0095,-5.0252,-5.0276,-5.0387,-5.0172,-5.065,-5.0666,-5.068,-5.0855,-5.0889,-5.0917,0,0,0,0,0,-4.988,-4.9906,-5.011,-5.0006,-5.0029,-5.0012,-5.0079,-5.0072,-5.0107,-5.0099,-5.0094,-5.0069,-5.01,-5.0117,-5.0266,-5.0377,-5.0155,-5.0164,-5.066,-5.0673,-5.0684,-5.0872,0,0,0,0,0,0,-4.9886,-4.9899,-5.0113,-5.0118,-4.9938,-4.9999,-5.0008,-5.0066,-5.0093,-5.009,-5.0029,-5.0016,-5.0105,-5.0117,-5.0131,-5.0377,-5.0141,-5.0151,-5.0156,-5.067,-5.0679,-5.0688,0,0,0,0,0,0,-4.9885,-4.9905,-5.0116,-5.0032,-5.0027,-4.9988,-4.9996,-5.0115,-5.0094,-5.0021,-5.001,-5.0023,-5.0084,-5.0119,-5.0129,-5.0317,-5.0131,-5.014,-5.0146,-5.015,-5.0678,-5.0685,0,0,0,0,0,0,-4.9892,-4.9909,-5.003,-5.0026,-5.0022,-5.0076,-5.0092,-5.0216,-5.0026,-5.0021,-5.0007,-4.9998,-5.0087,-5.0096,-5.0128,-5.0313,-5.0316,-5.0131,-5.0137,-5.0141,-5.0144,0,0,0,0,0,0,0,-4.9898,-4.9796,-5.0083,-5.0022,-5.0017,-5.0167,-5.0168,-5.0169,-5.0024,-5.0016,-5.0009,-5.0002,-5.008,-5.009,-5.01,-5.0309,0,0,-5.013,-5.0134,0,0,0,0,0,0,0,0,-4.9788,-4.9794,-5.0083,-5.0084,-5.0085,-5.0167,-5.0168,-5.0169,-5.0023,-5.0017,-5.0011,-5.0005,-5.0083,-5.009,-5.0098,0,0,0,0,0,0,0,0,0,0,0,0,0,0,0,-5.0083,-5.0084,0,-5.0167,-5.0168,-5.0169,-5.0022,-5.0017,-5.0012,-5.0007,-5.0085,-5.0091,-5.0098,0,0,0,0,0,0,0,0,0,0,0,0,0,0,0,0,0,0,0,0,0,0,0,0,0,0,0,0,0,0,0,0,0,0,0,0,0,0,0,0,0,0,0,0,0,0,0,0,0,0,0,0,0,0,0,0,0,0,0,0,0,0,0,0,0,0,0,0,0]}],[{"header":{"parameterUnit":"kt","parameterCategory":2,"dx":1,"dy":1,"la1":30.253999710083008,"la2":30.299108505249023,"lo1":-89.0895004272461,"lo2":-89.04439544677734,"nx":28,"ny":28,"refTime":"2022-10-03T21:00:00:Z","depth":0,"parameterNumber":2,"parameterNumberName":"V-component_of_WINDS"},"data":[-4.0874,-4.093,-4.0944,-4.1013,-4.1037,-4.1086,-4.1107,-4.1136,-4.1161,-4.1218,-4.1253,-4.1271,-4.13,-4.1342,-4.1378,-4.1384,-4.1397,-4.1406,-4.1412,-4.1363,-4.1357,-4.1352,-4.134,-4.141,-4.141,-4.1459,-4.146,-4.146,-4.0833,-4.0859,-4.0901,-4.095,-4.0985,-4.0985,-4.1024,-4.1052,-4.1094,-4.1127,-4.1162,-4.1212,-4.1253,-4.128,-4.132,-4.1343,-4.1343,-4.1352,-4.1349,-4.1353,-4.1303,-4.129,-4.1351,-4.1351,-4.1351,-4.1351,-4.1351,-4.1351,-4.0763,-4.0796,-4.0836,-4.0881,-4.091,-4.0942,-4.0975,-4.0999,-4.1038,-4.1085,-4.1093,-4.114,-4.1174,-4.123,-4.1251,-4.1286,-4.1278,-4.1291,-4.1294,-4.1296,-4.1297,-4.1219,-4.1294,-4.1294,-4.1294,-4.1293,-4.1293,0,-4.0715,-4.0725,-4.0767,-4.0813,-4.0847,-4.0883,-4.0918,-4.0939,-4.0964,-4.0995,-4.104,-4.1068,-4.1123,-4.1165,-4.1206,-4.1226,-4.1226,-4.1229,-4.1237,-4.1232,-4.1222,-4.1225,-4.1139,-4.1226,-4.1225,-4.1225,-4.1225,-4.1224,-4.0642,-4.0681,-4.073,-4.0757,-4.0781,-4.0824,-4.0852,-4.0872,-4.09,-4.0945,-4.0972,-4.1016,-4.1052,-4.1121,-4.1144,-4.1184,-4.1184,-4.1215,-4.119,-4.1184,-4.1181,-4.1178,-4.118,-4.1219,-4.122,-4.122,-4.1221,0,-4.0599,-4.0625,-4.0689,-4.0734,-4.0746,-4.0784,-4.0821,-4.0854,-4.0873,-4.0921,-4.0933,-4.0961,-4.1005,-4.1024,-4.1077,-4.1086,-4.1142,-4.1142,-4.1129,-4.113,-4.1157,-4.1153,-4.125,-4.1262,-4.1193,-4.1194,-4.1194,0,-4.0546,-4.0596,-4.063,-4.0666,-4.0721,-4.074,-4.0793,-4.0815,-4.0847,-4.0885,-4.0891,-4.0925,-4.0945,-4.0982,-4.0995,-4.1045,-4.1055,-4.1064,-4.1066,-4.1062,-4.106,-4.1074,-4.107,-4.1073,-4.1073,-4.1072,-4.1072,0,-4.0474,-4.0552,-4.0612,-4.0633,-4.0686,-4.0712,-4.0735,-4.0771,-4.0799,-4.0837,-4.0854,-4.0898,-4.092,-4.0952,-4.0968,-4.0949,-4.103,-4.1009,-4.1038,-4.1038,-4.1054,-4.1052,-4.1135,-4.1071,-4.1071,-4.1071,-4.1071,0,-4.0434,-4.0477,-4.056,-4.0603,-4.0623,-4.0662,-4.0707,-4.0745,-4.0783,-4.0794,-4.0824,-4.083,-4.0878,-4.0854,-4.092,-4.0891,-4.0912,-4.0925,-4.0928,-4.0931,-4.0904,-4.0944,-4.1024,-4.1031,-4.0936,-4.0935,-4.0934,0,-4.0343,-4.0435,-4.0454,-4.0532,-4.0577,-4.0581,-4.0624,-4.0659,-4.0678,-4.0716,-4.0736,-4.078,-4.0767,-4.0783,-4.0814,-4.0835,-4.0872,-4.0831,-4.088,-4.0882,-4.0868,-4.0942,-4.0948,-4.1005,-4.092,-4.0922,-4.0923,0,-4.0276,-4.0343,-4.0356,-4.0381,-4.0433,-4.0471,-4.0521,-4.057,-4.0595,-4.0634,-4.0674,-4.0738,-4.0729,-4.0757,-4.0766,-4.0796,-4.0847,-4.0783,-4.0784,-4.0791,-4.0916,-4.0921,-4.093,-4.0846,-4.0848,-4.0849,-4.0912,0,-4.0205,-4.0256,-4.0293,-4.035,-4.0384,-4.0435,-4.046,-4.0491,-4.0497,-4.0517,-4.0578,-4.0612,-4.066,-4.0678,-4.0685,-4.0749,-4.074,-4.0731,-4.0708,-4.0758,-4.0778,-4.0787,-4.0675,-4.0675,-4.0674,-4.0674,0,0,-4.0109,-4.0183,-4.0203,-4.0255,-4.0284,-4.0289,-4.0341,-4.037,-4.0427,-4.0446,-4.0434,-4.0528,-4.0556,-4.0627,-4.0644,-4.0665,-4.0677,-4.066,-4.0735,-4.0741,-4.0748,-4.0769,-4.0778,-4.0673,-4.0673,-4.0673,-4.0673,0,-4.0089,-4.0123,-4.0177,-4.0208,-4.0255,-4.0274,-4.0287,-4.0334,-4.0349,-4.0411,-4.0412,-4.0451,-4.0528,-4.0556,-4.058,-4.0652,-4.0649,-4.0666,-4.0696,-4.0729,-4.0737,-4.0743,-4.0766,-4.0774,-4.0672,-4.0672,-4.0672,0,-4.0025,-4.0061,-4.0091,-4.0161,-4.0192,-4.0239,-4.0221,-4.0273,-4.0307,-4.0307,-4.0369,-4.039,-4.0431,-4.0497,-4.0527,-4.0517,-4.0622,-4.0594,-4.0598,-4.0601,-4.0635,-4.0643,-4.0651,-4.0548,-4.0547,-4.0547,0,0,-4.0003,-4.0052,-4.0097,-4.0159,-4.0178,-4.0208,-4.0236,-4.0246,-4.0285,-4.03,-4.0329,-4.0365,-4.0409,-4.0437,-4.048,-4.0549,-4.0557,-4.0578,-4.0584,-4.0589,-4.0594,-4.0629,-4.0638,-4.0545,-4.0545,-4.0544,0,0,-3.9992,-4.0048,-4.0049,-4.0124,-4.0162,-4.0209,-4.0244,-4.0246,-4.0288,-4.0284,-4.0302,-4.0312,-4.0374,-4.0396,-4.0367,-4.0471,-4.0448,-4.0456,-4.0455,-4.0463,-4.0469,-4.0461,-4.0352,0,0,0,0,0,-3.9984,-4.0041,-4.0041,-4.0058,-4.0147,-4.0209,-4.022,-4.0238,-4.0221,-4.0248,-4.0272,-4.0268,-4.0383,-4.0358,-4.0372,-4.0404,-4.0519,-4.0524,-4.0528,-4.0543,-4.0551,-4.0558,0,0,0,0,0,0,-3.9991,-4.0011,-4.004,-4.0089,-4.011,-4.0208,-4.0182,-4.0188,-4.0218,-4.0217,-4.0264,-4.0269,-4.0284,-4.0351,-4.0364,-4.0394,-4.0347,-4.0521,-4.0525,-4.0528,-4.0546,-4.0552,-4.0558,0,0,0,0,0,-3.9996,-4.0013,-4.0151,-4.0089,-4.0106,-4.0143,-4.018,-4.0185,-4.0208,-4.0246,-4.0252,-4.0219,-4.0284,-4.0296,-4.0359,-4.0388,-4.0338,-4.0343,-4.0523,-4.0526,-4.0529,-4.0549,0,0,0,0,0,0,-4.0,-4.0017,-4.0155,-4.016,-4.0069,-4.0137,-4.0149,-4.0182,-4.0236,-4.0242,-4.0202,-4.02,-4.0285,-4.0294,-4.0303,-4.0385,-4.0331,-4.0336,-4.0339,-4.0526,-4.0528,-4.053,0,0,0,0,0,0,-4.0008,-4.0022,-4.0158,-4.0132,-4.0135,-4.0132,-4.0143,-4.0199,-4.0236,-4.0189,-4.0189,-4.02,-4.027,-4.0293,-4.03,-4.0387,-4.0326,-4.033,-4.0333,-4.0336,-4.0528,-4.0529,0,0,0,0,0,0,-4.0014,-4.0026,-4.0131,-4.0133,-4.0136,-4.0202,-4.0182,-4.0271,-4.0217,-4.0186,-4.0213,-4.0211,-4.0269,-4.0277,-4.0298,-4.0382,-4.0386,-4.0326,-4.0329,-4.0331,-4.0333,0,0,0,0,0,0,0,-4.0019,-3.9937,-4.0121,-4.0134,-4.0136,-4.0214,-4.0216,-4.0217,-4.0217,-4.0215,-4.0213,-4.0211,-4.0299,-4.0304,-4.0309,-4.0378,0,0,-4.0325,-4.0328,0,0,0,0,0,0,0,0,-3.9932,-3.9936,-4.0121,-4.0122,-4.0123,-4.0214,-4.0216,-4.0217,-4.0216,-4.0215,-4.0213,-4.0212,-4.03,-4.0305,-4.0309,0,0,0,0,0,0,0,0,0,0,0,0,0,0,0,-4.0121,-4.0122,0,-4.0215,-4.0216,-4.0217,-4.0216,-4.0215,-4.0214,-4.0213,-4.0302,-4.0305,-4.0308,0,0,0,0,0,0,0,0,0,0,0,0,0,0,0,0,0,0,0,0,0,0,0,0,0,0,0,0,0,0,0,0,0,0,0,0,0,0,0,0,0,0,0,0,0,0,0,0,0,0,0,0,0,0,0,0,0,0,0,0,0,0,0,0,0,0,0,0,0]}]]]